Weather History for Banff, AB

Change the Weather History Date:

Tuesday, January 14, 2014

  Actual Average Record
Temperature  
Mean Temperature 29 °F -  
Max Temperature 38 °F - - ()
Min Temperature 21 °F - - ()
Degree Days  
Heating Degree Days 36    
Moisture  
Dew Point 20 °F    
Average Humidity 62    
Maximum Humidity 70    
Minimum Humidity 54    
Precipitation  
Precipitation 0.25 in - - ()
Sea Level Pressure  
Sea Level Pressure 30.36 in    
Wind  
Wind Speed 6 mph ()    
Max Wind Speed 12 mph    
Max Gust Speed 21 mph    
T = Trace of Precipitation, MM = Missing Value Source: Averaged Metar Reports

Daily Weather History Graph

Daily Weather History Graph

Search for Another Location

Airport:

Trip Planner

Search our weather history database for the weather conditions in past years. The results will help you decide how hot, cold, wet, or windy it might be!

Date:

Astronomy

Jan. 14, 2014 Rise Set
Actual Time 8:40 AM MST 5:02 PM MST
Civil Twilight 8:02 AM MST 5:40 PM MST
Nautical Twilight 7:20 AM MST 6:22 PM MST
Astronomical Twilight 6:40 AM MST 7:02 PM MST
Moon 4:15 PM MST (1/14) 7:14 AM MST (1/14)
Length of Visible Light 9h 38m
Length of Day
8h 22m
Waxing Gibbous, 98% of the Moon is Illuminated
Jan 14
Waxing Gibbous
Jan 15
Full
Jan 23
Last Quarter
Jan 30
New
Feb 6
First Quarter

Hourly Weather History & Observations

Time (MST) Temp. Windchill Dew Point Humidity Pressure Visibility Wind Dir Wind Speed Gust Speed Precip Events Conditions
12:00 AM 26.4 °F 20.9 °F 11.8 °F 54% 30.32 in - SW 4.6 mph - N/A   Unknown
1:00 AM 24.8 °F 19.1 °F 11.5 °F 57% 30.37 in - WSW 4.6 mph - N/A   Unknown
2:00 AM 24.4 °F 17.5 °F 12.6 °F 61% 30.39 in - WSW 5.8 mph - N/A   Unknown
3:00 AM 21.9 °F 17.2 °F 13.5 °F 70% 30.40 in - WSW 3.5 mph - N/A   Unknown
4:00 AM 21.7 °F 15.5 °F 13.3 °F 70% 30.42 in - WSW 4.6 mph - N/A   Unknown
5:00 AM 25.7 °F 20.1 °F 13.6 °F 60% 30.43 in - SW 4.6 mph - N/A   Unknown
6:00 AM 24.8 °F 19.1 °F 13.8 °F 63% 30.44 in - WSW 4.6 mph - N/A   Unknown
7:00 AM 26.1 °F 18.4 °F 15.1 °F 63% 30.44 in - SW 6.9 mph - N/A   Unknown
8:00 AM 28.4 °F 23.3 °F 18.5 °F 66% 30.44 in - WSW 4.6 mph - N/A   Unknown
9:00 AM 28.8 °F 25.0 °F 17.4 °F 63% 30.45 in - West 3.5 mph - N/A   Unknown
10:00 AM 32.9 °F 28.5 °F 18.7 °F 56% 30.44 in - WSW 4.6 mph - N/A   Unknown
11:00 AM 32.9 °F 25.3 °F 22.1 °F 65% 30.43 in - WSW 9.2 mph 19.6 mph N/A   Unknown
12:00 PM 33.1 °F 26.1 °F 22.5 °F 65% 30.42 in - WSW 8.1 mph 17.3 mph N/A   Unknown
1:00 PM 34.3 °F 27.0 °F 22.8 °F 63% 30.41 in - WSW 9.2 mph 17.3 mph N/A   Unknown
2:00 PM 34.9 °F 29.0 °F 23.5 °F 63% 30.40 in - West 6.9 mph - N/A   Unknown
3:00 PM 35.1 °F 28.6 °F 23.5 °F 63% 30.36 in - WSW 8.1 mph 18.4 mph N/A   Unknown
4:00 PM 35.6 °F 29.2 °F 24.3 °F 63% 30.35 in - WSW 8.1 mph 19.6 mph N/A   Unknown
5:00 PM 35.6 °F 28.6 °F 24.4 °F 64% 30.35 in - WSW 9.2 mph - N/A   Unknown
6:00 PM 36.3 °F 29.5 °F 24.1 °F 61% 30.32 in - WSW 9.2 mph 19.6 mph N/A   Unknown
7:00 PM 37.2 °F 31.2 °F 23.5 °F 58% 30.31 in - WSW 8.1 mph 17.3 mph N/A   Unknown
8:00 PM 35.8 °F 28.8 °F 25.7 °F 67% 30.29 in - WSW 9.2 mph - N/A   Unknown
9:00 PM 37.0 °F 30.4 °F 23.5 °F 58% 30.23 in - WSW 9.2 mph 19.6 mph N/A   Unknown
10:00 PM 37.6 °F 30.5 °F 25.7 °F 62% 30.15 in - WSW 10.4 mph 20.7 mph N/A   Unknown
11:00 PM 38.8 °F 31.6 °F 24.6 °F 57% 30.06 in - West 11.5 mph 20.7 mph N/A   Unknown